RH
9 9 10 12 15 20 30 52 68 88 96 91 94 94 96 95 83 80 84 92 94 94 100 99 100 98 100 92 98 84 85 68
11 11 10 11 15 21 31 45 62 87 94 95 97 97 98 99 96 83 76 81 93 100 97 99 100 98 98 90 88 85 80 66
12 12 12 12 13 18 26 40 57 86 92 94 88 88 93 85 85 76 77 80 96 99 99 100 100 100 100 99 95 89 82 73
15 15 14 15 15 22 23 32 47 84 92 80 74 76 82 86 89 80 81 95 100 99 99 100 100 100 100 94 94 91 83 74
23 22 21 18 16 18 27 30 40 86 79 65 64 68 77 76 75 71 96 99 93 95 100 100 100 100 100 100 98 90 82 76
29 28 26 24 19 18 30 34 40 86 76 61 67 62 63 64 63 68 91 100 98 97 100 100 100 100 100 100 95 86 78 74
32 31 31 30 24 20 30 41 55 84 79 65 67 63 56 57 65 77 99 100 100 99 99 99 100 100 100 99 92 83 80 74
35 36 37 41 35 22 31 46 70 86 88 70 66 63 57 57 70 77 100 100 100 99 100 100 99 100 100 95 89 84 82 77
39 42 49 52 44 30 35 51 75 85 91 72 67 63 61 58 69 75 94 100 99 99 100 94 99 96 96 92 95 93 83 78
44 51 60 58 64 36 39 70 80 89 90 74 69 66 62 57 72 78 92 98 100 98 100 100 99 100 95 94 94 92 88 87
52 60 67 70 74 34 45 80 82 89 90 81 75 66 70 64 77 83 87 90 99 100 99 100 100 100 100 100 100 100 97 99
60 69 76 77 87 39 71 78 83 89 92 89 82 71 72 70 76 80 82 88 97 100 100 100 100 100 100 100 99 100 99 92
62 73 80 81 89 92 83 82 90 93 94 93 89 81 76 82 80 79 79 89 92 100 100 100 100 100 100 99 100 95 88 89
66 75 82 84 90 95 98 96 96 97 96 92 91 87 83 87 83 84 89 86 92 93 97 100 100 100 100 100 99 98 94 90
73 81 84 87 90 94 98 100 100 99 98 93 92 90 88 90 85 83 86 86 86 88 94 94 99 99 100 100 99 95 88 82
85 90 88 90 92 95 97 99 100 100 100 100 98 91 92 94 92 88 84 86 90 87 88 90 90 91 100 100 98 92 88 86
94 90 94 93 97 98 99 99 100 100 100 100 100 100 100 100 100 94 98 97 98 89 90 95 100 100 100 98 98 100 94 92
100 100 100 100 100 100 100 100 100 100 100 100 100 100 100 100 100 100 100 100 100 100 100 100 100 100 100 98 96 96 98 98
98 100 99 100 100 100 100 99 99 100 100 100 100 100 100 100 100 100 100 100 100 100 100 100 100 98 95 97 100 100 100 100
Wind_Speed
18 21 24 22 19 20 23 26 26 26 23 22 22 19 21 18 19 17 17 20 21 19 19 21 31 30 26 29 28 33 29 24
18 19 21 18 19 19 23 26 28 27 26 25 23 22 22 18 19 17 19 19 20 20 24 25 32 35 34 34 29 34 26 24
18 21 22 24 23 23 24 27 29 29 27 25 19 21 20 18 19 19 18 20 19 22 26 34 32 35 36 34 28 24 24 27
11 13 18 21 22 22 27 28 30 30 27 25 21 18 14 17 16 19 18 16 17 21 24 26 39 37 38 39 35 27 22 26
11 13 16 24 25 24 24 27 29 30 30 28 27 23 18 17 19 17 16 18 18 18 23 31 38 40 37 38 37 32 28 25
10 12 15 20 24 25 23 25 28 28 32 30 27 24 19 16 16 15 18 17 15 16 18 24 36 35 39 39 31 29 27 27
12 14 17 18 21 24 23 25 25 28 32 32 29 25 20 16 16 17 15 19 21 20 20 21 27 31 35 38 28 28 26 25
14 15 14 20 22 23 22 25 25 27 29 33 29 25 20 17 20 18 17 21 22 23 25 25 23 27 32 30 26 28 24 24
16 17 16 19 22 23 22 23 24 26 27 32 27 24 20 18 19 18 17 20 23 26 28 26 25 27 31 32 31 30 29 24
18 17 19 22 31 22 24 22 22 24 27 27 27 24 21 19 19 18 19 18 20 22 28 30 31 30 33 35 35 34 33 30
17 17 22 29 38 17 19 24 24 25 24 23 24 23 20 19 20 22 19 19 20 24 25 28 31 32 33 32 29 30 32 29
15 17 25 29 39 9 18 19 15 24 21 20 20 20 20 19 18 19 19 19 19 20 27 26 29 32 33 34 33 27 29 24
14 17 23 28 32 28 11 13 14 19 18 19 18 16 19 17 18 18 18 16 16 19 20 23 27 30 33 33 33 26 33 30
15 17 19 24 28 30 25 8 14 18 19 20 18 17 18 16 16 18 18 18 16 16 18 19 20 24 26 29 33 30 24 30
18 16 17 25 28 28 28 23 8 17 19 19 18 17 16 16 15 15 18 17 18 17 19 18 18 18 20 23 27 25 25 25
17 17 15 24 27 29 29 27 25 24 24 20 12 14 13 14 16 14 15 12 11 16 14 14 16 17 15 20 23 25 24 25
16 18 16 18 24 26 28 28 27 24 27 24 20 19 16 13 12 15 14 12 9 10 10 9 9 7 10 19 18 16 21 21
13 13 13 17 18 24 25 27 26 27 28 28 26 21 20 18 17 20 19 18 17 16 15 14 10 3 7 17 20 20 12 13
10 10 17 20 19 20 21 26 25 25 30 30 25 23 21 23 25 22 20 19 19 18 16 14 12 13 5 3 8 9 9 9
Wind_Direction
222 228 228 227 232 224 206 201 203 202 200 198 201 200 205 207 214 217 224 226 223 223 215 206 186 179 181 184 182 188 187 175
228 228 234 217 229 220 213 201 202 194 198 191 192 197 201 204 204 220 227 231 224 213 211 194 183 188 187 185 176 179 185 177
244 244 241 237 225 224 218 210 203 197 198 194 199 202 204 212 210 226 227 232 220 216 213 206 187 189 186 181 177 185 190 183
293 288 274 260 246 217 226 216 207 195 197 200 202 198 201 204 204 225 225 223 206 219 227 199 196 186 185 186 189 185 182 181
269 268 269 258 249 235 225 220 211 192 197 200 198 196 195 204 208 220 213 217 226 241 234 222 193 190 184 186 185 186 175 173
299 291 293 272 259 239 218 221 209 189 198 204 194 204 197 193 204 201 208 213 216 213 216 194 183 181 178 183 181 179 180 178
316 314 301 286 260 252 208 214 193 190 195 202 197 199 191 179 191 186 174 189 193 196 185 171 168 177 178 178 183 184 187 193
331 330 321 311 295 242 210 211 191 195 196 200 196 196 189 182 186 184 180 179 178 191 189 177 170 169 167 175 185 194 194 196
339 332 322 298 279 265 209 201 196 194 193 202 193 191 184 185 189 186 184 186 192 196 191 185 183 182 185 186 188 188 190 183
341 336 324 313 305 248 213 179 191 189 195 200 192 188 180 183 182 182 182 188 187 193 198 196 193 195 191 194 195 200 205 211
347 345 333 331 321 229 191 168 188 188 191 193 192 184 177 175 174 183 182 186 183 187 193 198 196 194 195 197 196 201 207 210
358 353 349 348 348 217 149 163 195 170 184 177 189 182 176 173 175 175 183 183 183 177 190 194 196 198 199 200 201 202 205 206
10 8 357 2 357 353 135 160 158 165 172 175 175 182 178 173 174 179 183 171 182 180 182 192 197 200 205 208 203 205 211 211
24 22 9 7 1 356 355 152 152 164 165 167 169 175 180 175 176 174 176 181 189 188 182 185 189 199 200 206 209 210 215 220
30 31 23 8 6 4 0 10 66 165 164 167 165 167 176 177 184 183 180 186 186 193 193 186 189 191 198 203 207 210 219 226
18 19 31 17 9 6 8 13 33 63 66 79 104 144 157 169 184 196 171 183 183 191 186 192 191 195 190 205 217 220 223 227
21 17 15 32 9 9 10 18 24 46 57 48 53 98 105 102 104 131 140 154 169 180 180 185 149 138 187 211 217 219 228 234
21 10 12 15 23 16 16 16 24 36 48 46 43 48 73 84 90 108 109 114 118 116 112 130 126 143 218 221 221 224 234 237
31 16 15 11 19 32 28 28 28 39 42 38 39 41 47 63 69 79 91 94 97 100 100 94 79 48 47 227 239 225 220 232